Regional Weather Roundup
Issued by NWS

Home | Current Version | Previous Version | Graphics & Text | Print | Product List | Glossary On
Versions: 1 2 3 4 5 6 7 8 9 10 11 12 13 14 15 16 17 18 19 20 21 22 23 24 25 26 27 28 29 30 31 32 33 34 35 36 37 38 39 40 41 42 43 44 45 46 47 48 49 50
000
ASUS43 KFSD 010110
RWRSD

WEATHER ROUNDUP FOR SOUTH DAKOTA
NATIONAL WEATHER SERVICE SIOUX FALLS SD
800 PM CDT TUE MAY 31 2016

NOTE: "FAIR" INDICATES FEW OR NO CLOUDS BELOW 12,000 FEET WITH NO
SIGNIFICANT WEATHER AND/OR OBSTRUCTIONS TO VISIBILITY.


SDZ001>005-009-010-012>017-010200-
NORTHWEST AND NORTH CENTRAL SOUTH DAKOTA

CITY           SKY/WX    TMP DP  RH WIND       PRES   REMARKS
BUFFALO          N/A     57  46  66 NW26G36   29.92R
FAITH            N/A     57  43  59 NW28G39   29.93R
MOBRIDGE       PTSUNNY   59  46  62 NW29G38   29.78R
$$

SDZ012>016-024>037-041>051-057-063-072>074-010200-
SOUTHWEST AND SOUTH CENTRAL SOUTH DAKOTA

CITY           SKY/WX    TMP DP  RH WIND       PRES   REMARKS
RAPID CTY ARPT MOSUNNY   58  41  53 NW25G36   30.03S
PIERRE         CLOUDY    60  45  57 W25G35    29.89R
CUSTER         PTSUNNY   49  35  58 NW16G24   30.10R
ELLSWORTH AFB  CLOUDY    56  43  60 NW24G33   30.03R
PHILIP         CLOUDY    61  47  59 NW23G33   29.96S
PINE RIDGE     SUNNY     62  36  37 NW16G22   30.03R
WINNER         FAIR      63  44  50 NW21G28   29.95R
$$

SDZ004>011-016>023-039-040-010200-
NORTHEAST SOUTH DAKOTA

CITY           SKY/WX    TMP DP  RH WIND       PRES   REMARKS
ABERDEEN       CLOUDY    61  48  62 W25G47    29.71S
WATERTOWN      MOCLDY    66  45  46 W25G36    29.79S
BROOKINGS      CLEAR     68  46  45 W16G25    29.83R
SISSETON         N/A     67  47  48 W16G25    29.72S
$$

SDZ017-020-022-023-036>040-048>070-010200-
SOUTHEAST SOUTH DAKOTA

CITY           SKY/WX    TMP DP  RH WIND       PRES   REMARKS
SIOUX FALLS    MOCLDY    71  48  43 SW7       29.86R
HURON          MOSUNNY   67  47  48 W25G32    29.84R
CHAMBERLAIN    SUNNY     65  48  54 W26G37    29.92R
MITCHELL       CLEAR     70  48  45 W18G26    29.88R
YANKTON        CLEAR     73  48  40 SW6       29.86R
$$

ABBREVIATIONS USED IN REMARKS
   TC - TEMPERATURE IN CELSIUS
  WCI - WIND CHILL INDEX
   HX - HEAT INDEX
  VSB - VISIBILITY





USA.gov is the U.S. government's official web portal to all federal, state and local government web resources and services.